IGO31AC VABB-VOHS

Flight info

Callsign IGO31AC
Flight time 1h 11m
Altitude 35000
Route VEVAK2A PPN W28 PONIP NAMSA8
Aircraft A21N/M-SDE3FGHIRWY/LB1

Departure

Time 2026-04-21 16:11
Airport Chhatrapati Shivaji Maharaj International Airport (VABB)

Arrival

Time 2026-04-21 17:22
Airport Rajiv Gandhi International Airport (VOHS)
Time Latitude Longitude Altitude Speed Heading
2026-04-21 15:54 19.09573 72.87739 40 ft 0 kts 244°
2026-04-21 16:03 19.09575 72.87743 40 ft 2 kts 244°
2026-04-21 16:03 19.09582 72.87757 40 ft 2 kts 242°
2026-04-21 16:04 19.09588 72.87771 40 ft 2 kts 242°
2026-04-21 16:04 19.09595 72.87785 40 ft 2 kts 242°
2026-04-21 16:04 19.09602 72.87798 41 ft 2 kts 242°
2026-04-21 16:04 19.09608 72.87811 41 ft 1 kts 243°
2026-04-21 16:05 19.09616 72.87817 41 ft 1 kts 179°
2026-04-21 16:05 19.09625 72.87814 41 ft 1 kts 128°
2026-04-21 16:05 19.09632 72.87802 42 ft 2 kts 127°
2026-04-21 16:05 19.09642 72.87791 42 ft 2 kts 130°
2026-04-21 16:06 19.09646 72.87785 42 ft 0 kts 129°
2026-04-21 16:07 19.09645 72.87785 42 ft 1 kts 129°
2026-04-21 16:08 19.09561 72.87847 39 ft 14 kts 190°
2026-04-21 16:08 19.09450 72.87791 35 ft 19 kts 213°
2026-04-21 16:08 19.09325 72.87757 31 ft 20 kts 174°
2026-04-21 16:09 19.09180 72.87765 29 ft 19 kts 167°
2026-04-21 16:09 19.09084 72.87810 31 ft 13 kts 179°
2026-04-21 16:09 19.08993 72.87809 33 ft 12 kts 181°
2026-04-21 16:09 19.08908 72.87803 33 ft 10 kts 211°
2026-04-21 16:10 19.08887 72.87722 31 ft 19 kts 261°
2026-04-21 16:10 19.08877 72.87310 26 ft 91 kts 269°
2026-04-21 16:10 19.08865 72.86403 31 ft 150 kts 269°
2026-04-21 16:10 19.08848 72.85147 255 ft 177 kts 270°
2026-04-21 16:11 19.08825 72.83881 812 ft 179 kts 272°
2026-04-21 16:11 19.08803 72.82493 1245 ft 195 kts 273°
2026-04-21 16:11 19.08786 72.80996 1727 ft 208 kts 274°
2026-04-21 16:11 19.08769 72.79391 2160 ft 225 kts 274°
2026-04-21 16:12 19.08758 72.78257 2364 ft 242 kts 274°
2026-04-21 16:12 19.08729 72.75742 3000 ft 265 kts 274°
2026-04-21 16:12 19.08528 72.73754 3675 ft 278 kts 254°
2026-04-21 16:12 19.07424 72.72062 4399 ft 289 kts 219°
2026-04-21 16:13 19.05571 72.71229 5198 ft 290 kts 186°
2026-04-21 16:13 19.03562 72.71363 6020 ft 288 kts 170°
2026-04-21 16:13 19.01590 72.71666 6817 ft 288 kts 171°
2026-04-21 16:13 18.99584 72.71938 7571 ft 289 kts 172°
2026-04-21 16:14 18.97540 72.72186 8323 ft 290 kts 172°
2026-04-21 16:14 18.95506 72.72414 9052 ft 292 kts 173°
2026-04-21 16:14 18.93518 72.72865 9728 ft 292 kts 153°
2026-04-21 16:14 18.91991 72.74228 10336 ft 293 kts 123°
2026-04-21 16:15 18.91254 72.76254 10660 ft 307 kts 102°
2026-04-21 16:15 18.90778 72.78535 10948 ft 324 kts 104°
2026-04-21 16:15 18.90187 72.80895 11394 ft 334 kts 106°
2026-04-21 16:15 18.89544 72.83295 12097 ft 337 kts 107°
2026-04-21 16:16 18.88877 72.85716 12808 ft 339 kts 107°
2026-04-21 16:16 18.88196 72.88146 13499 ft 342 kts 107°
2026-04-21 16:16 18.87505 72.90588 14142 ft 345 kts 107°
2026-04-21 16:16 18.86799 72.93071 14743 ft 350 kts 107°
2026-04-21 16:17 18.86089 72.95561 15326 ft 354 kts 107°
2026-04-21 16:17 18.85358 72.98118 15902 ft 359 kts 107°
2026-04-21 16:17 18.84627 73.00674 16440 ft 364 kts 108°
2026-04-21 16:17 18.83882 73.03281 16990 ft 369 kts 108°
2026-04-21 16:18 18.83129 73.05904 17517 ft 373 kts 108°
2026-04-21 16:18 18.82367 73.08558 18064 ft 377 kts 107°
2026-04-21 16:18 18.81586 73.11273 18626 ft 381 kts 107°
2026-04-21 16:18 18.80813 73.13958 19170 ft 384 kts 107°
2026-04-21 16:19 18.80043 73.16640 19721 ft 386 kts 107°
2026-04-21 16:19 18.79253 73.19388 20268 ft 389 kts 107°
2026-04-21 16:19 18.78460 73.22143 20796 ft 392 kts 107°
2026-04-21 16:19 18.77659 73.24928 21324 ft 394 kts 107°
2026-04-21 16:20 18.76858 73.27718 21846 ft 396 kts 107°
2026-04-21 16:20 18.76061 73.30489 22350 ft 399 kts 107°
2026-04-21 16:20 18.75239 73.33343 22841 ft 402 kts 107°
2026-04-21 16:20 18.74421 73.36185 23297 ft 405 kts 107°
2026-04-21 16:21 18.73596 73.39037 23749 ft 409 kts 108°
2026-04-21 16:21 18.72760 73.41925 24176 ft 413 kts 107°
2026-04-21 16:21 18.71916 73.44844 24566 ft 417 kts 108°
2026-04-21 16:21 18.71065 73.47791 24957 ft 421 kts 108°
2026-04-21 16:22 18.70201 73.50770 25366 ft 424 kts 108°
2026-04-21 16:22 18.69322 73.53804 25768 ft 427 kts 108°
2026-04-21 16:22 18.68456 73.56792 26148 ft 430 kts 108°
2026-04-21 16:22 18.67579 73.59819 26511 ft 433 kts 108°
2026-04-21 16:23 18.66681 73.62914 26863 ft 436 kts 108°
2026-04-21 16:23 18.65784 73.66000 27214 ft 439 kts 108°
2026-04-21 16:23 18.64886 73.69097 27546 ft 442 kts 108°
2026-04-21 16:23 18.63985 73.72198 27858 ft 445 kts 108°
2026-04-21 16:24 18.63073 73.75333 28179 ft 447 kts 108°
2026-04-21 16:24 18.62149 73.78506 28502 ft 450 kts 108°
2026-04-21 16:24 18.61219 73.81705 28810 ft 452 kts 108°
2026-04-21 16:24 18.60300 73.84862 29089 ft 455 kts 108°
2026-04-21 16:25 18.59360 73.88076 29345 ft 458 kts 109°
2026-04-21 16:25 18.58320 73.91229 29593 ft 459 kts 113°
2026-04-21 16:25 18.57099 73.94351 29858 ft 460 kts 117°
2026-04-21 16:25 18.55776 73.97435 30107 ft 463 kts 117°
2026-04-21 16:26 18.54412 74.00575 30360 ft 465 kts 118°
2026-04-21 16:26 18.53055 74.03692 30669 ft 465 kts 118°
2026-04-21 16:26 18.51713 74.06781 31055 ft 463 kts 119°
2026-04-21 16:26 18.50378 74.09861 31395 ft 462 kts 120°
2026-04-21 16:27 18.49034 74.12961 31703 ft 462 kts 120°
2026-04-21 16:27 18.47706 74.16018 31988 ft 462 kts 120°
2026-04-21 16:27 18.46346 74.19150 32300 ft 461 kts 121°
2026-04-21 16:27 18.45024 74.22195 32633 ft 460 kts 121°
2026-04-21 16:28 18.43691 74.25265 32948 ft 458 kts 122°
2026-04-21 16:28 18.42367 74.28312 33264 ft 457 kts 122°
2026-04-21 16:28 18.41049 74.31339 33560 ft 457 kts 122°
2026-04-21 16:28 18.39725 74.34376 33862 ft 456 kts 122°
2026-04-21 16:29 18.38408 74.37395 34186 ft 454 kts 122°
2026-04-21 16:29 18.37084 74.40437 34461 ft 454 kts 123°
2026-04-21 16:29 18.35762 74.43471 34765 ft 452 kts 123°
2026-04-21 16:29 18.34434 74.46519 35059 ft 451 kts 123°
2026-04-21 16:30 18.33126 74.49519 35328 ft 449 kts 123°
2026-04-21 16:30 18.31826 74.52494 35553 ft 449 kts 123°
2026-04-21 16:30 18.30490 74.55551 35711 ft 450 kts 123°
2026-04-21 16:30 18.29194 74.58523 35870 ft 451 kts 123°
2026-04-21 16:31 18.27877 74.61535 36001 ft 452 kts 123°
2026-04-21 16:31 18.26567 74.64535 36166 ft 452 kts 123°
2026-04-21 16:31 18.25259 74.67527 36348 ft 451 kts 124°
2026-04-21 16:31 18.23945 74.70531 36503 ft 451 kts 124°
2026-04-21 16:32 18.22626 74.73560 36605 ft 453 kts 124°
2026-04-21 16:32 18.20019 74.79572 36793 ft 454 kts 124°
2026-04-21 16:32 18.18713 74.82592 36917 ft 454 kts 124°
2026-04-21 16:33 18.17399 74.85620 36922 ft 456 kts 124°
2026-04-21 16:33 18.14777 74.91671 36921 ft 454 kts 124°
2026-04-21 16:34 18.12151 74.97726 36917 ft 453 kts 124°
2026-04-21 16:34 18.09518 75.03783 36913 ft 454 kts 124°
2026-04-21 16:35 18.06900 75.09804 36917 ft 453 kts 124°
2026-04-21 16:35 18.04257 75.15871 36937 ft 454 kts 124°
2026-04-21 16:36 18.01604 75.21957 36932 ft 452 kts 124°
2026-04-21 16:36 17.98957 75.28024 36937 ft 453 kts 124°
2026-04-21 16:37 17.96295 75.34122 36933 ft 454 kts 124°
2026-04-21 16:37 17.93654 75.40166 36937 ft 452 kts 124°
2026-04-21 16:38 17.91034 75.46151 36942 ft 453 kts 124°
2026-04-21 16:38 17.88390 75.52183 36941 ft 454 kts 124°
2026-04-21 16:39 17.85724 75.58270 36939 ft 453 kts 124°
2026-04-21 16:39 17.83063 75.64335 36939 ft 455 kts 124°
2026-04-21 16:40 17.80387 75.70427 36935 ft 455 kts 124°
2026-04-21 16:40 17.77721 75.76496 36928 ft 455 kts 124°
2026-04-21 16:41 17.75048 75.82564 36925 ft 456 kts 124°
2026-04-21 16:41 17.72381 75.88628 36919 ft 455 kts 124°
2026-04-21 16:42 17.69720 75.94669 36918 ft 457 kts 124°
2026-04-21 16:42 17.67013 76.00801 36923 ft 456 kts 124°
2026-04-21 16:43 17.64306 76.06854 36919 ft 456 kts 124°
2026-04-21 16:43 17.61607 76.12883 36912 ft 455 kts 124°
2026-04-21 16:44 17.58863 76.19019 36917 ft 455 kts 124°
2026-04-21 16:44 17.56155 76.25067 36918 ft 457 kts 124°
2026-04-21 16:45 17.53468 76.31068 36916 ft 457 kts 124°
2026-04-21 16:45 17.50735 76.37169 36779 ft 453 kts 124°
2026-04-21 16:45 17.49402 76.40144 36308 ft 450 kts 124°
2026-04-21 16:46 17.48069 76.43111 35647 ft 449 kts 123°
2026-04-21 16:46 17.46753 76.46035 35004 ft 448 kts 123°
2026-04-21 16:46 17.45427 76.48981 34271 ft 449 kts 123°
2026-04-21 16:46 17.44099 76.51927 33480 ft 451 kts 122°
2026-04-21 16:47 17.42760 76.54901 32692 ft 454 kts 121°
2026-04-21 16:47 17.41396 76.57927 31929 ft 456 kts 121°
2026-04-21 16:47 17.40053 76.60915 31155 ft 459 kts 120°
2026-04-21 16:47 17.38688 76.63947 30398 ft 460 kts 120°
2026-04-21 16:48 17.37322 76.66986 29639 ft 461 kts 119°
2026-04-21 16:48 17.35953 76.70037 29255 ft 454 kts 119°
2026-04-21 16:48 17.34627 76.72991 28968 ft 453 kts 118°
2026-04-21 16:48 17.33279 76.75993 28628 ft 452 kts 118°
2026-04-21 16:49 17.32138 76.79041 28207 ft 453 kts 111°
2026-04-21 16:49 17.31376 76.82254 27752 ft 453 kts 103°
2026-04-21 16:49 17.31015 76.85513 27307 ft 451 kts 96°
2026-04-21 16:49 17.30838 76.88794 26820 ft 448 kts 95°
2026-04-21 16:50 17.30697 76.92012 26347 ft 444 kts 94°
2026-04-21 16:50 17.30558 76.95218 25891 ft 440 kts 95°
2026-04-21 16:50 17.30414 76.98399 25424 ft 436 kts 95°
2026-04-21 16:50 17.30263 77.01543 24960 ft 433 kts 94°
2026-04-21 16:51 17.30108 77.04678 24501 ft 429 kts 95°
2026-04-21 16:51 17.29954 77.07779 24037 ft 426 kts 94°
2026-04-21 16:51 17.29798 77.10838 23576 ft 422 kts 94°
2026-04-21 16:51 17.29640 77.13927 23106 ft 419 kts 94°
2026-04-21 16:52 17.29487 77.16925 22642 ft 416 kts 94°
2026-04-21 16:52 17.29330 77.19964 22186 ft 413 kts 94°
2026-04-21 16:52 17.29177 77.22928 21733 ft 410 kts 94°
2026-04-21 16:52 17.29024 77.25890 21272 ft 407 kts 94°
2026-04-21 16:53 17.28872 77.28812 20817 ft 404 kts 94°
2026-04-21 16:53 17.28720 77.31730 20361 ft 401 kts 93°
2026-04-21 16:53 17.28567 77.34647 19903 ft 398 kts 93°
2026-04-21 16:53 17.28416 77.37539 19442 ft 395 kts 93°
2026-04-21 16:54 17.28268 77.40355 18992 ft 392 kts 93°
2026-04-21 16:54 17.28117 77.43201 18530 ft 389 kts 92°
2026-04-21 16:54 17.27968 77.46019 18078 ft 386 kts 92°
2026-04-21 16:54 17.27821 77.48815 17615 ft 383 kts 92°
2026-04-21 16:55 17.27677 77.51559 17154 ft 381 kts 92°
2026-04-21 16:55 17.27531 77.54343 16684 ft 378 kts 92°
2026-04-21 16:55 17.27387 77.57053 16233 ft 376 kts 92°
2026-04-21 16:55 17.27240 77.59771 15774 ft 374 kts 92°
2026-04-21 16:56 17.27094 77.62511 15308 ft 371 kts 92°
2026-04-21 16:56 17.26948 77.65225 14853 ft 368 kts 92°
2026-04-21 16:56 17.26804 77.67930 14393 ft 366 kts 92°
2026-04-21 16:56 17.26658 77.70654 13931 ft 363 kts 92°
2026-04-21 16:57 17.26513 77.73329 13477 ft 360 kts 92°
2026-04-21 16:57 17.26355 77.75955 13159 ft 352 kts 93°
2026-04-21 16:57 17.26162 77.78501 12800 ft 347 kts 94°
2026-04-21 16:57 17.25958 77.81036 12340 ft 344 kts 94°
2026-04-21 16:58 17.25757 77.83553 12005 ft 341 kts 94°
2026-04-21 16:58 17.25558 77.86078 11960 ft 343 kts 94°
2026-04-21 16:58 17.25360 77.88611 11960 ft 344 kts 94°
2026-04-21 16:58 17.25152 77.91148 11956 ft 340 kts 96°
2026-04-21 16:59 17.24545 77.93534 11952 ft 323 kts 109°
2026-04-21 16:59 17.23864 77.95734 11955 ft 306 kts 105°
2026-04-21 16:59 17.23261 77.97897 11967 ft 305 kts 104°
2026-04-21 16:59 17.22656 78.00095 11963 ft 303 kts 104°
2026-04-21 17:00 17.22066 78.02251 11796 ft 303 kts 104°
2026-04-21 17:00 17.21472 78.04421 11599 ft 302 kts 105°
2026-04-21 17:00 17.21081 78.05864 11469 ft 302 kts 104°
2026-04-21 17:00 17.20287 78.08730 11212 ft 304 kts 106°
2026-04-21 17:01 17.19645 78.10980 11023 ft 319 kts 105°
2026-04-21 17:01 17.19046 78.13208 10826 ft 309 kts 104°
2026-04-21 17:01 17.18492 78.15395 10632 ft 300 kts 103°
2026-04-21 17:01 17.17964 78.17509 10436 ft 291 kts 103°
2026-04-21 17:02 17.17448 78.19579 10246 ft 283 kts 103°
2026-04-21 17:02 17.16948 78.21588 10050 ft 275 kts 103°
2026-04-21 17:02 17.16461 78.23543 9963 ft 271 kts 103°
2026-04-21 17:02 17.15975 78.25487 9969 ft 270 kts 103°
2026-04-21 17:03 17.15487 78.27433 9942 ft 271 kts 103°
2026-04-21 17:03 17.15010 78.29341 9813 ft 269 kts 104°
2026-04-21 17:03 17.14519 78.31302 9697 ft 268 kts 103°
2026-04-21 17:03 17.14040 78.33217 9579 ft 267 kts 102°
2026-04-21 17:04 17.13662 78.35171 9458 ft 266 kts 97°
2026-04-21 17:04 17.13460 78.37120 9340 ft 264 kts 92°
2026-04-21 17:04 17.13427 78.39084 9220 ft 263 kts 87°
2026-04-21 17:04 17.13565 78.41023 9100 ft 262 kts 82°
2026-04-21 17:05 17.13860 78.42914 8983 ft 261 kts 78°
2026-04-21 17:05 17.14181 78.44843 8862 ft 261 kts 81°
2026-04-21 17:05 17.14363 78.46769 8743 ft 261 kts 86°
2026-04-21 17:05 17.14426 78.48737 8622 ft 261 kts 87°
2026-04-21 17:06 17.14469 78.50665 8503 ft 261 kts 88°
2026-04-21 17:06 17.14509 78.52592 8374 ft 259 kts 88°
2026-04-21 17:06 17.14546 78.54481 8079 ft 257 kts 88°
2026-04-21 17:06 17.14583 78.56347 7725 ft 257 kts 88°
2026-04-21 17:07 17.14607 78.57624 7501 ft 256 kts 88°
2026-04-21 17:07 17.14656 78.60133 7056 ft 254 kts 88°
2026-04-21 17:07 17.14694 78.61990 6750 ft 251 kts 86°
2026-04-21 17:07 17.15086 78.63767 6387 ft 250 kts 60°
2026-04-21 17:08 17.16276 78.65109 6007 ft 250 kts 31°
2026-04-21 17:08 17.17954 78.65635 5650 ft 250 kts
2026-04-21 17:08 17.19669 78.65181 5410 ft 252 kts 330°
2026-04-21 17:08 17.20957 78.63889 5178 ft 254 kts 306°
2026-04-21 17:09 17.22750 78.60659 4694 ft 248 kts 291°
2026-04-21 17:09 17.23116 78.58853 4406 ft 246 kts 274°
2026-04-21 17:09 17.23129 78.57040 4093 ft 244 kts 268°
2026-04-21 17:10 17.23062 78.55226 3776 ft 243 kts 268°
2026-04-21 17:10 17.23016 78.53428 3463 ft 236 kts 269°
2026-04-21 17:10 17.22996 78.51730 3223 ft 221 kts 269°
2026-04-21 17:10 17.22979 78.50124 2942 ft 208 kts 269°
2026-04-21 17:11 17.22959 78.48626 2670 ft 194 kts 268°
2026-04-21 17:11 17.22940 78.47230 2421 ft 180 kts 268°
2026-04-21 17:11 17.22923 78.45952 2188 ft 166 kts 268°
2026-04-21 17:11 17.22904 78.44804 2045 ft 150 kts 268°
2026-04-21 17:12 17.22883 78.43755 2046 ft 142 kts 267°
2026-04-21 17:12 17.22861 78.42602 2391 ft 162 kts 270°
2026-04-21 17:12 17.22903 78.41392 3066 ft 164 kts 271°
2026-04-21 17:12 17.22938 78.40192 3730 ft 163 kts 269°
2026-04-21 17:13 17.22620 78.39033 4053 ft 172 kts 226°
2026-04-21 17:13 17.21531 78.38454 4343 ft 182 kts 188°
2026-04-21 17:13 17.20184 78.38332 4666 ft 197 kts 181°
2026-04-21 17:13 17.18749 78.38295 4923 ft 200 kts 180°
2026-04-21 17:14 17.17289 78.38390 4960 ft 207 kts 162°
2026-04-21 17:14 17.16049 78.39280 4995 ft 228 kts 128°
2026-04-21 17:14 17.15421 78.40859 4915 ft 238 kts 97°
2026-04-21 17:14 17.15316 78.42674 4955 ft 244 kts 91°
2026-04-21 17:15 17.15311 78.44486 4969 ft 249 kts 90°
2026-04-21 17:15 17.15324 78.46341 4976 ft 250 kts 90°
2026-04-21 17:15 17.15339 78.48161 4978 ft 250 kts 89°
2026-04-21 17:15 17.15356 78.50008 4979 ft 249 kts 90°
2026-04-21 17:16 17.15374 78.51856 4979 ft 249 kts 89°
2026-04-21 17:16 17.15384 78.53725 4976 ft 249 kts 89°
2026-04-21 17:16 17.15390 78.55587 4975 ft 250 kts 89°
2026-04-21 17:16 17.15394 78.57404 4971 ft 246 kts 89°
2026-04-21 17:17 17.15399 78.59251 4789 ft 246 kts 89°
2026-04-21 17:17 17.15662 78.61033 4539 ft 243 kts 65°
2026-04-21 17:17 17.16722 78.62402 4332 ft 237 kts 33°
2026-04-21 17:17 17.18304 78.62949 4121 ft 230 kts 360°
2026-04-21 17:18 17.19847 78.62516 3932 ft 231 kts 327°
2026-04-21 17:18 17.20969 78.61307 3759 ft 231 kts 304°
2026-04-21 17:18 17.21823 78.59875 3601 ft 229 kts 300°
2026-04-21 17:18 17.22630 78.58396 3580 ft 230 kts 296°
2026-04-21 17:19 17.23064 78.56764 3623 ft 222 kts 276°
2026-04-21 17:19 17.23100 78.55222 3641 ft 202 kts 269°
2026-04-21 17:19 17.23048 78.53827 3540 ft 179 kts 268°
2026-04-21 17:19 17.23009 78.52581 3333 ft 164 kts 268°
2026-04-21 17:20 17.22990 78.51400 3122 ft 162 kts 269°
2026-04-21 17:20 17.22977 78.50214 2925 ft 160 kts 268°
2026-04-21 17:20 17.22964 78.49049 2726 ft 158 kts 268°
2026-04-21 17:20 17.22947 78.47901 2526 ft 156 kts 268°
2026-04-21 17:21 17.22929 78.46773 2338 ft 154 kts 268°
2026-04-21 17:21 17.22915 78.45657 2144 ft 152 kts 268°
2026-04-21 17:21 17.22901 78.44582 2045 ft 141 kts 268°
2026-04-21 17:21 17.22888 78.43710 2030 ft 96 kts 269°
2026-04-21 17:22 17.22884 78.43319 2014 ft 63 kts 269°
2026-04-21 17:22 17.22945 78.42971 2002 ft 28 kts 299°
2026-04-21 17:22 17.23044 78.42791 1994 ft 25 kts 301°
2026-04-21 17:22 17.23142 78.42731 1992 ft 17 kts 359°
2026-04-21 17:23 17.23235 78.42730 1996 ft 13 kts 359°
2026-04-21 17:23 17.23303 78.42736 1998 ft 11 kts 29°
2026-04-21 17:23 17.23327 78.42792 2001 ft 9 kts 89°
2026-04-21 17:23 17.23327 78.42842 2004 ft 7 kts 89°
2026-04-21 17:24 17.23328 78.42922 2011 ft 16 kts 89°
2026-04-21 17:24 17.23329 78.43007 2017 ft 4 kts 82°
2026-04-21 17:24 17.23340 78.43019 2018 ft 2 kts 27°
2026-04-21 17:24 17.23356 78.43024 2018 ft 5 kts 11°
2026-04-21 17:25 17.23389 78.43027 2017 ft 5 kts
2026-04-21 17:25 17.23399 78.43027 2017 ft 0 kts 360°